Miscellaneous Local Product
Issued by NWS North Platte, NE

Home | Current Version | Previous Version | Text Only | Print | Product List | Glossary On
Versions: 1 2 3 4 5 6 7 8 9 10 11 12 13 14 15 16 17 18 19 20 21 22 23 24 25 26 27 28 29 30 31 32 33 34 35 36 37 38 39 40 41 42 43 44 45 46 47 48 49 50
000
AXUS43 KLBF 241710
MISLBF


WESTERN AND NORTH CENTRAL NEBRASKA HOURLY WEATHER ROUNDUP
NATIONAL WEATHER SERVICE NORTH PLATTE NE
1200 PM CDT THU JUL 24 2014

***STATIONS NOT REPORTING VARIABLES SUCH AS SKY/WEATHER OR
PRESSURE ARE PROVIDED BY THE NEBRASKA DEPARTMENT OF
ROADS...RAWS...AND APRS NETWORKS...AND ARE NOT UNDER
NATIONAL WEATHER SERVICE QUALITY CONTROL***

...OBSERVATIONS IN AND NEAR THE EASTERN PANHANDLE OF NEBRASKA...

CITY           SKY/WX    TMP DP  RH WIND       PRES   REMARKS
PINE RIDGE     MOSUNNY   91  65  41 VRB6      29.87F HX  93
CHADRON        MOSUNNY   97  53  22 SW14      29.86S HX  94
ALLIANCE       SUNNY     95  55  26 SW15G22   29.96F HX  93
SIDNEY         SUNNY     98  49  18 SW15G21   30.03S HX  95
WHITECLAY        N/A     92  61  35 SW6         N/A  HX  92
RUSHVILLE        N/A     95  65  37 SW14        N/A  HX  97
GORDON           N/A     99  70  39 SW15        N/A  HX 106
CRESCENT LAKE    N/A     92  62  36 SW12G18     N/A  HX  92
LISCO            N/A     95  59  30 S3          N/A  HX  94
BIG SPRINGS      N/A     84  67  57 SW5         N/A
$$

...OBSERVATIONS IN NORTH CENTRAL NEBRASKA...

CITY           SKY/WX    TMP DP  RH WIND       PRES   REMARKS
VALENTINE      MOSUNNY   89  67  47 S21G26    29.88F HX  92
THEDFORD       SUNNY     85  67  54 S13G24    29.95F
AINSWORTH      SUNNY     84  66  54 S24G32    29.92F
O`NEILL        SUNNY     81  62  52 S24G33    29.97F
ORD            MOSUNNY   80  65  59 SE18G26   30.00F
BROKEN BOW     SUNNY     84  68  58 S22G30    29.99F
MERRIMAN         N/A     98  67  36 W14         N/A  HX 102
BROWNLEE         N/A     92  67  43 S20         N/A  HX  96
SPRINGVIEW       N/A     83  68  60 S14G25      N/A
DUNNING          N/A     84  66  54 N18         N/A
ROSE             N/A     84  72  67 E23         N/A
NEWPORT          N/A     80  68  65 S26         N/A
SARGENT          N/A     81  69  66 SE3         N/A
COMSTOCK         N/A     86  73  65 S21         N/A  HX  92
CHAMBERS         N/A     81  66  60 W7          N/A
EWING            N/A     79  66  63 S13G23      N/A
$$

...OBSERVATIONS IN SOUTHWEST NEBRASKA AND FAR NORTHEAST COLORADO...

CITY           SKY/WX    TMP DP  RH WIND       PRES   REMARKS
WRAY             N/A    100  42  14 S21G33    29.99F HX  95
HOLYOKE        FAIR      95  59  30 S14G22    30.00F HX  94
IMPERIAL       SUNNY     95  59  30 S13G22    29.97F HX  94
OGALLALA       SUNNY     88  65  46 S9        29.97S HX  90
NORTH PLATTE   SUNNY     86  66  51 S10       29.96F
MCCOOK         SUNNY     88  68  51 S12       29.99F HX  91
LEXINGTON      SUNNY     83  68  61 S21G26    30.00F
PAXTON           N/A     81  70  69 S8          N/A
SUTHERLAND       N/A     87  77  70 S12         N/A  HX  99
BRADY            N/A     83  69  63 CALM        N/A
GOTHENBURG       N/A     78  62  57 S12         N/A
CALLAWAY         N/A     77  69  77 S20         N/A
$$

...SOME WEATHER OBSERVATIONS FROM AROUND THE REGION...

CITY           SKY/WX    TMP DP  RH WIND       PRES   REMARKS
DENVER         MOSUNNY   92  44  19 VRB6      30.12F
LARAMIE        MOSUNNY   81  44  27 SW24G35   30.27F
CHEYENNE       MOSUNNY   88  44  21 W29G39    30.16S
SCOTTSBLUFF    PTSUNNY   89  64  43 SE6       29.97F HX  90
RAPID CITY     CLOUDY    81  69  67 SE6       29.81F
PIERRE         PTSUNNY   83  64  52 SE25G31   29.79F
WINNER         FAIR      87  66  49 S28G40    29.83F
SIOUX FALLS    TSTM      66  62  87 SE18      30.07R FOG
OMAHA          CLOUDY    76  60  57 SE17      30.11F
GRAND ISLAND   SUNNY     80  66  62 SE20G26   30.05F
KANSAS CITY    MOSUNNY   78  59  51 SE13      30.15S
WICHITA        SUNNY     83  68  60 SE12      30.09F
HAYS           SUNNY     63  63 100 S17G23    30.05S
LIBERAL        SUNNY     93  63  36 SW17      30.10F HX  94
GOODLAND       SUNNY     94  55  26 SW17      30.05F HX  92
$$



USA.gov is the U.S. government's official web portal to all federal, state and local government web resources and services.